timestamp,surface_pressure_avg,surface_temp_avg,battery_voltage,lat,long
2021-08-01 00:09:01+00:00,233.2864,17.5,13.05,47.84626,-54.09684
2021-08-01 00:19:01+00:00,238.1681,17.5,12.81,47.84626,-54.09684
2021-08-01 00:29:01+00:00,240.6965,17.5,12.81,47.84626,-54.09684
2021-08-01 00:39:01+00:00,239.8065,17.5,12.81,47.84626,-54.09684
2021-08-01 00:49:01+00:00,240.5614,17.49,12.81,47.84626,-54.09684
2021-08-01 00:59:01+00:00,245.4698,17.45,12.81,47.84626,-54.09684
2021-08-01 01:09:01+00:00,250.1381,17.45,12.81,47.84626,-54.09684
2021-08-01 01:19:01+00:00,252.3998,17.42,12.73,47.84626,-54.09684
2021-08-01 01:29:01+00:00,252.0014,17.46,12.73,47.84626,-54.09684
2021-08-01 01:39:01+00:00,251.1982,17.48,12.73,47.84626,-54.09684
2021-08-01 01:49:01+00:00,255.6264,17.47,12.73,47.84626,-54.09684
2021-08-01 01:59:01+00:00,260.2597,17.44,12.73,47.84626,-54.09684
2021-08-01 02:09:01+00:00,262.7198,17.4,12.73,47.84626,-54.09684
2021-08-01 02:19:01+00:00,263.6147,17.4,12.73,47.84626,-54.09684
2021-08-01 02:29:01+00:00,270.0464,17.4,12.73,47.84626,-54.09684
2021-08-01 02:39:01+00:00,274.7297,17.4,12.73,47.84626,-54.09684
2021-08-01 02:49:01+00:00,277.2164,17.46,12.73,47.84626,-54.09684
2021-08-01 02:59:01+00:00,279.9614,17.5,12.73,47.84626,-54.09684
2021-08-01 03:09:01+00:00,288.208,17.49,12.73,47.84626,-54.09684
2021-08-01 03:19:01+00:00,290.428,17.5,12.73,47.84626,-54.09684
2021-08-01 03:29:01+00:00,292.4247,17.5,12.73,47.84626,-54.09684
2021-08-01 03:39:01+00:00,298.8647,17.48,12.73,47.84626,-54.09684
2021-08-01 03:49:01+00:00,307.278,17.45,12.73,47.84626,-54.09684
2021-08-01 03:59:01+00:00,309.2546,17.45,12.73,47.84626,-54.09684
2021-08-01 04:09:01+00:00,313.4847,17.44,12.73,47.84626,-54.09684
2021-08-01 04:19:00+00:00,317.7314,17.45,12.73,47.84626,-54.09684
2021-08-01 04:29:00+00:00,317.2047,17.5,12.73,47.84626,-54.09684
2021-08-01 04:39:00+00:00,318.628,17.5,12.73,47.84626,-54.09684
2021-08-01 04:49:00+00:00,321.1946,17.5,12.73,47.84626,-54.09684
2021-08-01 04:59:00+00:00,320.7496,17.5,12.73,47.84626,-54.09684
2021-08-01 05:09:00+00:00,322.153,17.5,12.73,47.84626,-54.09684
2021-08-01 05:19:01+00:00,324.9197,17.49,12.73,47.84626,-54.09684
2021-08-01 05:29:01+00:00,327.173,17.49,12.73,47.84626,-54.09684
2021-08-01 05:39:01+00:00,324.0347,17.5,12.73,47.84626,-54.09684
2021-08-01 05:49:01+00:00,323.848,17.5,12.73,47.84626,-54.09684
2021-08-01 05:59:01+00:00,322.58799999999997,17.5,12.73,47.84626,-54.09684
2021-08-01 06:09:01+00:00,320.7996,17.5,12.73,47.84626,-54.09684
2021-08-01 06:19:00+00:00,318.0146,17.5,12.73,47.84626,-54.09684
2021-08-01 06:29:00+00:00,317.708,17.5,12.73,47.84626,-54.09684
2021-08-01 06:39:00+00:00,316.1462,17.5,12.73,47.84626,-54.09684
2021-08-01 06:49:00+00:00,315.4146,17.5,12.73,47.84626,-54.09684
2021-08-01 06:59:00+00:00,313.803,17.5,12.73,47.84626,-54.09684
2021-08-01 07:09:00+00:00,315.1413,17.49,12.73,47.84626,-54.09684
2021-08-01 07:19:01+00:00,313.5779,17.49,12.65,47.84626,-54.09684
2021-08-01 07:29:01+00:00,312.5496,17.5,12.65,47.84626,-54.09684
2021-08-01 07:39:01+00:00,309.4313,17.5,12.65,47.84626,-54.09684
2021-08-01 07:49:01+00:00,304.6481,17.5,12.65,47.84626,-54.09684
2021-08-01 07:59:01+00:00,298.3664,17.5,12.65,47.84626,-54.09684
2021-08-01 08:09:01+00:00,291.0714,17.5,12.65,47.84626,-54.09684
2021-08-01 08:19:01+00:00,283.4714,17.5,12.65,47.84626,-54.09684
2021-08-01 08:29:01+00:00,277.9014,17.49,12.65,47.84626,-54.09684
2021-08-01 08:39:01+00:00,273.1331,17.49,12.65,47.84626,-54.09684
2021-08-01 08:49:01+00:00,266.2997,17.49,12.65,47.84626,-54.09684
2021-08-01 08:59:01+00:00,259.1947,17.49,12.65,47.84626,-54.09684
2021-08-01 09:09:01+00:00,253.0565,17.48,12.65,47.84626,-54.09684
2021-08-01 09:19:01+00:00,247.0647,17.46,12.73,47.84626,-54.09684
2021-08-01 09:29:01+00:00,241.7781,17.43,12.73,47.84626,-54.09684
2021-08-01 09:39:01+00:00,237.0497,17.43,12.73,47.84626,-54.09684
2021-08-01 09:49:01+00:00,231.4748,17.43,12.73,47.84626,-54.09684
2021-08-01 09:59:01+00:00,227.3131,17.43,12.73,47.84626,-54.09684
2021-08-01 10:09:01+00:00,225.0681,17.44,12.73,47.84626,-54.09684
2021-08-01 10:19:01+00:00,225.3315,17.43,13.29,47.84626,-54.09684
2021-08-01 10:29:01+00:00,223.9965,17.46,13.29,47.84626,-54.09684
2021-08-01 10:39:01+00:00,224.3615,17.5,13.29,47.84626,-54.09684
2021-08-01 10:49:01+00:00,228.9198,17.59,13.29,47.84626,-54.09684
2021-08-01 10:59:01+00:00,230.5097,17.5,13.29,47.84626,-54.09684
2021-08-01 11:09:01+00:00,226.8364,17.5,13.29,47.84626,-54.09684
2021-08-01 11:19:01+00:00,229.7831,17.5,13.68,47.84626,-54.09684
2021-08-01 11:29:01+00:00,235.8231,17.5,13.68,47.84626,-54.09684
2021-08-01 11:39:01+00:00,234.3664,17.5,13.68,47.84626,-54.09684
2021-08-01 11:49:01+00:00,233.8181,17.5,13.68,47.84626,-54.09684
2021-08-01 11:59:01+00:00,239.0264,17.53,13.68,47.84626,-54.09684
2021-08-01 12:09:01+00:00,239.9347,17.52,13.68,47.84626,-54.09684
2021-08-01 12:19:01+00:00,236.4247,17.6,14.24,47.84626,-54.09684
2021-08-01 12:29:01+00:00,238.1614,17.6,14.24,47.84626,-54.09684
2021-08-01 12:39:01+00:00,244.4264,17.6,14.24,47.84626,-54.09684
2021-08-01 12:49:01+00:00,244.4648,17.59,14.24,47.84626,-54.09684
2021-08-01 12:59:01+00:00,245.5247,17.6,14.24,47.84626,-54.09684
2021-08-01 13:09:01+00:00,252.7114,17.59,14.24,47.84626,-54.09684
2021-08-01 13:19:01+00:00,255.3014,17.4,14.24,47.84626,-54.09684
2021-08-01 13:29:01+00:00,255.0197,17.45,14.24,47.84626,-54.09684
2021-08-01 13:39:01+00:00,258.9731,17.33,14.24,47.84626,-54.09684
2021-08-01 13:49:01+00:00,264.4331,17.39,14.24,47.84626,-54.09684
2021-08-01 13:59:01+00:00,263.6097,17.41,14.24,47.84626,-54.09684
2021-08-01 14:09:01+00:00,263.5381,17.46,14.24,47.84626,-54.09684
2021-08-01 14:19:01+00:00,268.303,17.5,14.32,47.84626,-54.09684
2021-08-01 14:29:01+00:00,273.0247,17.49,14.32,47.84626,-54.09684
2021-08-01 14:39:01+00:00,271.3264,17.66,14.32,47.84626,-54.09684
2021-08-01 14:49:01+00:00,275.058,17.68,14.32,47.84626,-54.09684
2021-08-01 14:59:01+00:00,283.8414,17.66,14.32,47.84626,-54.09684
2021-08-01 15:09:01+00:00,285.4163,17.7,14.32,47.84626,-54.09684
2021-08-01 15:19:01+00:00,283.6197,17.8,14.32,47.84626,-54.09684
2021-08-01 15:29:01+00:00,292.1497,17.6,14.32,47.84626,-54.09684
2021-08-01 15:39:01+00:00,300.08299999999997,17.59,14.32,47.84626,-54.09684
2021-08-01 15:49:01+00:00,297.968,17.7,14.32,47.84626,-54.09684
2021-08-01 15:59:01+00:00,298.643,17.6,14.32,47.84626,-54.09684
2021-08-01 16:09:01+00:00,309.4363,17.5,14.32,47.84626,-54.09684
2021-08-01 16:19:01+00:00,312.2963,17.5,14.0,47.84626,-54.09684
2021-08-01 16:29:01+00:00,306.5062,17.5,14.0,47.84626,-54.09684
2021-08-01 16:39:01+00:00,312.1064,17.3,14.0,47.84626,-54.09684
2021-08-01 16:49:01+00:00,321.3397,17.32,14.0,47.84626,-54.09684
2021-08-01 16:59:01+00:00,318.383,17.55,14.0,47.84626,-54.09684
2021-08-01 17:09:01+00:00,318.2697,17.59,14.0,47.84626,-54.09684
2021-08-01 17:19:01+00:00,326.883,17.3,14.08,47.84626,-54.09684
2021-08-01 17:29:01+00:00,331.6596,17.35,14.08,47.84626,-54.09684
2021-08-01 17:39:01+00:00,324.093,17.4,14.08,47.84626,-54.09684
2021-08-01 17:49:01+00:00,324.3179,17.4,14.08,47.84626,-54.09684
2021-08-01 17:59:01+00:00,329.9429,17.4,14.08,47.84626,-54.09684
2021-08-01 18:09:01+00:00,328.8130000000001,17.44,14.08,47.84626,-54.09684
2021-08-01 18:19:01+00:00,324.8397,17.57,13.92,47.84626,-54.09684
2021-08-01 18:29:01+00:00,330.2112,17.45,13.92,47.84626,-54.09684
2021-08-01 18:39:01+00:00,334.9913,17.72,13.92,47.84626,-54.09684
2021-08-01 18:49:01+00:00,331.3763,17.99,13.92,47.84626,-54.09684
2021-08-01 18:59:01+00:00,330.3397,17.88,13.92,47.84626,-54.09684
2021-08-01 19:09:01+00:00,330.9979,17.82,13.92,47.84626,-54.09684
2021-08-01 19:19:01+00:00,328.5181,18.1,13.84,47.84626,-54.09684
2021-08-01 19:29:01+00:00,326.143,17.64,13.84,47.84626,-54.09684
2021-08-01 19:39:01+00:00,325.20799999999997,17.57,13.84,47.84626,-54.09684
2021-08-01 19:49:01+00:00,321.9547,17.88,13.84,47.84626,-54.09684
2021-08-01 19:59:01+00:00,315.1497,17.8,13.84,47.84626,-54.09684
2021-08-01 20:09:01+00:00,312.3713,17.8,13.84,47.84626,-54.09684
2021-08-01 20:19:01+00:00,309.4113,17.9,13.68,47.84626,-54.09684
2021-08-01 20:29:01+00:00,305.873,17.99,13.68,47.84626,-54.09684
2021-08-01 20:39:01+00:00,301.308,17.9,13.68,47.84626,-54.09684
2021-08-01 20:49:01+00:00,297.5763,17.96,13.68,47.84626,-54.09684
2021-08-01 20:59:01+00:00,293.9914,18.0,13.68,47.84626,-54.09684
2021-08-01 21:09:01+00:00,291.473,18.08,13.68,47.84626,-54.09684
2021-08-01 21:19:00+00:00,287.7147,18.0,13.6,47.84626,-54.09684
2021-08-01 21:29:00+00:00,281.9914,18.1,13.6,47.84626,-54.09684
2021-08-01 21:39:00+00:00,274.1848,18.08,13.6,47.84626,-54.09684
2021-08-01 21:49:00+00:00,267.2031,18.0,13.6,47.84626,-54.09684
2021-08-01 21:59:00+00:00,261.3647,17.9,13.6,47.84626,-54.09684
2021-08-01 22:09:00+00:00,259.0814,18.03,13.6,47.84626,-54.09684
2021-08-01 22:19:01+00:00,256.6798,18.19,13.37,47.84626,-54.09684
2021-08-01 22:29:01+00:00,251.843,18.2,13.37,47.84626,-54.09684
2021-08-01 22:39:01+00:00,245.3881,18.28,13.37,47.84626,-54.09684
2021-08-01 22:49:01+00:00,246.0281,18.3,13.37,47.84626,-54.09684
2021-08-01 22:59:01+00:00,247.6831,18.3,13.37,47.84626,-54.09684
2021-08-01 23:09:01+00:00,242.5614,18.2,13.37,47.84626,-54.09684
2021-08-01 23:19:01+00:00,237.2097,18.1,13.05,47.84626,-54.09684
2021-08-01 23:29:01+00:00,238.8064,18.1,13.05,47.84626,-54.09684
2021-08-01 23:39:01+00:00,239.0031,18.1,13.05,47.84626,-54.09684
2021-08-01 23:49:01+00:00,235.5498,18.1,13.05,47.84626,-54.09684
2021-08-01 23:59:01+00:00,237.4647,18.1,13.05,47.84626,-54.09684
